Terminal Aerodrome Forecast
Issued by NWS Paducah, KY

Home | Current Version | Previous Version | Text Only | Print | Product List | Glossary On
Versions: 1 2 3 4 5 6 7 8 9 10 11 12 13
000
FTUS43 KPAH 111700
TAFEVV
TAF
KEVV 111734Z 1118/1218 VRB04KT P6SM FEW050 SCT250
     FM121500 21005KT P6SM VCSH SCT040 OVC100=

USA.gov is the U.S. government's official web portal to all federal, state and local government web resources and services.